,,Stat6,,Stat2,,Stat8,,Stat9,,Stat10,,Wind1,,Wind1,
time,status,PA1M_AVG,status,PR1M_SUM,status,RH1M_AVG,status,SR1M_AVG,status,TA1M_AVG,status,W1dAve1m,status,W1sAve1m,
2003-10-09, 00:00:00,VALID,918.606,VALID,0,VALID,99.6671,VALID,-0.101885,VALID,20.4626,VALID,230,VALID,0.358817,
2003-10-09, 00:01:00,VALID,918.597,VALID,0,VALID,99.6429,VALID,-0.101885,VALID,20.4394,VALID,240,VALID,0.328835,
2003-10-09, 00:02:00,VALID,918.579,VALID,0,VALID,99.6124,VALID,-0.0849042,VALID,20.4303,VALID,236,VALID,0.40298,
2003-10-09, 00:03:00,VALID,918.553,VALID,0,VALID,99.5933,VALID,-0.0679233,VALID,20.4074,VALID,238,VALID,0.564215,
2003-10-09, 00:04:00,VALID,918.552,VALID,0,VALID,99.5285,VALID,0,VALID,20.3708,VALID,225,VALID,0.991319,
2003-10-09, 00:05:00,VALID,918.532,VALID,0,VALID,99.4865,VALID,0,VALID,20.3385,VALID,220,VALID,0.720312,
2003-10-09, 00:06:00,VALID,918.505,VALID,0,VALID,99.5488,VALID,-0.0169808,VALID,20.3157,VALID,205,VALID,0.328819,
2003-10-09, 00:07:00,VALID,918.491,VALID,0,VALID,99.5069,VALID,0.0169808,VALID,20.293,VALID,242,VALID,1.0372,
2003-10-09, 00:08:00,VALID,918.464,VALID,0,VALID,99.4878,VALID,0.0169808,VALID,20.2672,VALID,243,VALID,1.17283,
2003-10-09, 00:09:00,VALID,918.445,VALID,0,VALID,99.5132,VALID,0.0169808,VALID,20.2511,VALID,241,VALID,0.844113,
2003-10-09, 00:10:00,VALID,918.437,VALID,0,VALID,99.5628,VALID,0,VALID,20.2379,VALID,243,VALID,0.899771,
2003-10-09, 00:11:00,VALID,918.421,VALID,0,VALID,99.5425,VALID,0,VALID,20.2185,VALID,239,VALID,1.16461,
2003-10-09, 00:12:00,VALID,918.411,VALID,0,VALID,99.517,VALID,0,VALID,20.2023,VALID,240,VALID,1.16016,
2003-10-09, 00:13:00,VALID,918.406,VALID,0,VALID,99.5043,VALID,-0.0169808,VALID,20.1867,VALID,222,VALID,0.892756,
2003-10-09, 00:14:00,VALID,918.399,VALID,0,VALID,99.5348,VALID,0.0339617,VALID,20.1959,VALID,224,VALID,0.62686,
2003-10-09, 00:15:00,VALID,918.393,VALID,0,VALID,99.5501,VALID,0.0169808,VALID,20.1892,VALID,236,VALID,0.511161,
2003-10-09, 00:16:00,VALID,918.39,VALID,0,VALID,99.5552,VALID,0.0169808,VALID,20.1894,VALID,238,VALID,0.473474,
2003-10-09, 00:17:00,VALID,918.355,VALID,0,VALID,99.601,VALID,0,VALID,20.1994,VALID,238,VALID,0.0374273,
2003-10-09, 00:18:00,VALID,918.342,VALID,0,VALID,99.6391,VALID,-0.0339617,VALID,20.1934,VALID,223,VALID,0.368521,
2003-10-09, 00:19:00,VALID,918.323,VALID,0,VALID,99.676,VALID,-0.101885,VALID,20.2004,VALID,222,VALID,0.444425,
2003-10-09, 00:20:00,VALID,918.308,VALID,0,VALID,99.7129,VALID,-0.0679233,VALID,20.2036,VALID,227,VALID,0.694169,
2003-10-09, 00:21:00,VALID,918.284,VALID,0,VALID,99.7447,VALID,-0.0679233,VALID,20.2044,VALID,222,VALID,0.477307,
2003-10-09, 00:22:00,VALID,918.268,VALID,0,VALID,99.7625,VALID,-0.0509425,VALID,20.184,VALID,237,VALID,0.688033,
2003-10-09, 00:23:00,VALID,918.25,VALID,0,VALID,99.7803,VALID,-0.0509425,VALID,20.1877,VALID,231,VALID,0.441667,
2003-10-09, 00:24:00,VALID,918.237,VALID,0,VALID,99.7968,VALID,-0.0339617,VALID,20.178,VALID,240,VALID,0.755632,
2003-10-09, 00:25:00,VALID,918.227,VALID,0,VALID,99.8121,VALID,-0.0509425,VALID,20.1586,VALID,242,VALID,0.436738,
2003-10-09, 00:26:00,VALID,918.214,VALID,0,VALID,99.8146,VALID,-0.0679233,VALID,20.149,VALID,242,VALID,0.0308689,
2003-10-09, 00:27:00,VALID,918.211,VALID,0,VALID,99.8337,VALID,-0.0679233,VALID,20.1455,VALID,242,VALID,0.0133929,
2003-10-09, 00:28:00,VALID,918.207,VALID,0,VALID,99.854,VALID,-0.0509425,VALID,20.1522,VALID,242,VALID,0.217262,
2003-10-09, 00:29:00,VALID,918.199,VALID,0,VALID,99.8947,VALID,-0.101885,VALID,20.1686,VALID,243,VALID,0.0845703,
2003-10-09, 00:30:00,VALID,918.207,VALID,0,VALID,99.9265,VALID,-0.0849042,VALID,20.1847,VALID,264,VALID,0.157158,
2003-10-09, 00:31:00,VALID,918.201,VALID,0,VALID,99.9418,VALID,-0.0849042,VALID,20.1743,VALID,284,VALID,0.0368304,
2003-10-09, 00:32:00,VALID,918.205,VALID,0,VALID,99.9545,VALID,-0.0679233,VALID,20.1977,VALID,285,VALID,0.205788,
2003-10-09, 00:33:00,VALID,918.198,VALID,0,VALID,99.9908,VALID,-0.0339617,VALID,20.2235,VALID,286,VALID,0.22218,
2003-10-09, 00:34:00,VALID,918.193,VALID,0,VALID,99.9977,VALID,0,VALID,20.2182,VALID,286,VALID,0.142912,
2003-10-09, 00:35:00,VALID,918.186,VALID,0,VALID,100,VALID,0.0339617,VALID,20.2085,VALID,8,VALID,0.434659,
2003-10-09, 00:36:00,VALID,918.183,VALID,0,VALID,100,VALID,0.0339617,VALID,20.222,VALID,12,VALID,0.233487,
2003-10-09, 00:37:00,VALID,918.161,VALID,0,VALID,100,VALID,0.0339617,VALID,20.212,VALID,12,VALID,0.00572917,
2003-10-09, 00:38:00,VALID,918.151,VALID,0,VALID,99.9957,VALID,0,VALID,20.2021,VALID,13,VALID,0.363867,
2003-10-09, 00:39:00,VALID,918.124,VALID,0,VALID,99.971,VALID,0.0849042,VALID,20.1797,VALID,98,VALID,0.430959,
2003-10-09, 00:40:00,VALID,918.126,VALID,0,VALID,99.9596,VALID,0.0339617,VALID,20.1606,VALID,105,VALID,0.120192,
2003-10-09, 00:41:00,VALID,918.115,VALID,0,VALID,99.9608,VALID,0.0339617,VALID,20.1606,VALID,105,VALID,0.122159,
2003-10-09, 00:42:00,VALID,918.119,VALID,0,VALID,99.9723,VALID,0.0509425,VALID,20.1574,VALID,105,VALID,0,
2003-10-09, 00:43:00,VALID,918.098,VALID,0,VALID,99.9723,VALID,0.0339617,VALID,20.137,VALID,105,VALID,0.000571646,
2003-10-09, 00:44:01,VALID,918.1,VALID,0,VALID,99.9697,VALID,0,VALID,20.1318,VALID,105,VALID,0.160528,
2003-10-09, 00:45:00,VALID,918.09,VALID,0,VALID,99.9596,VALID,0,VALID,20.1315,VALID,105,VALID,0.0800781,
2003-10-09, 00:46:00,VALID,918.091,VALID,0,VALID,99.9748,VALID,0.0339617,VALID,20.135,VALID,105,VALID,0.121366,
2003-10-09, 00:47:00,VALID,918.1,VALID,0,VALID,99.9758,VALID,0.0169808,VALID,20.1283,VALID,105,VALID,0.159598,
2003-10-09, 00:48:00,VALID,918.094,VALID,0,VALID,99.9697,VALID,0.0169808,VALID,20.1315,VALID,128,VALID,0.622456,
2003-10-09, 00:49:00,VALID,918.095,VALID,0,VALID,99.9227,VALID,0.0169808,VALID,20.0863,VALID,128,VALID,0.581944,
2003-10-09, 00:50:00,VALID,918.087,VALID,0,VALID,99.9163,VALID,0,VALID,20.0702,VALID,128,VALID,0.539418,
2003-10-09, 00:51:00,VALID,918.086,VALID,0,VALID,99.9163,VALID,0.0169808,VALID,20.0575,VALID,128,VALID,0.609947,
2003-10-09, 00:52:01,VALID,918.082,VALID,0,VALID,99.9354,VALID,0.0339617,VALID,20.0406,VALID,129,VALID,0.750186,
2003-10-09, 00:53:00,VALID,918.053,VALID,0,VALID,99.9201,VALID,0,VALID,20.0349,VALID,130,VALID,0.606707,
2003-10-09, 00:54:00,VALID,918.044,VALID,0,VALID,99.9227,VALID,0.0679233,VALID,20.0284,VALID,129,VALID,0.647892,
2003-10-09, 00:55:00,VALID,918.03,VALID,0,VALID,99.9341,VALID,0,VALID,20.0088,VALID,122,VALID,0.710565,
2003-10-09, 00:56:01,VALID,918.009,VALID,0,VALID,99.9418,VALID,0.0679233,VALID,19.9991,VALID,112,VALID,0.550305,
2003-10-09, 00:57:00,VALID,917.982,VALID,0,VALID,99.9481,VALID,0.0679233,VALID,19.973,VALID,111,VALID,0.414244,
2003-10-09, 00:58:00,VALID,917.972,VALID,0,VALID,99.943,VALID,0.0169808,VALID,19.9636,VALID,111,VALID,0.209985,
2003-10-09, 00:59:00,VALID,917.945,VALID,0,VALID,99.971,VALID,0.0169808,VALID,19.9469,VALID,111,VALID,0.421875,
2003-10-09, 01:00:01,VALID,917.919,VALID,0,VALID,99.9685,VALID,0.0169808,VALID,19.9407,VALID,101,VALID,0.487464,
2003-10-09, 01:01:00,VALID,917.896,VALID,0,VALID,99.9919,VALID,0.0509425,VALID,19.9246,VALID,94,VALID,0.518111,
2003-10-09, 01:02:00,VALID,917.884,VALID,0,VALID,99.9944,VALID,0.0169808,VALID,19.9278,VALID,91,VALID,0.63418,
2003-10-09, 01:03:01,VALID,917.869,VALID,0,VALID,100,VALID,0.0169808,VALID,19.9154,VALID,85,VALID,0.800114,
2003-10-09, 01:04:00,VALID,917.85,VALID,0,VALID,100,VALID,0,VALID,19.9161,VALID,79,VALID,0.909896,
2003-10-09, 01:05:00,VALID,917.854,VALID,0,VALID,100,VALID,-0.0509425,VALID,19.9166,VALID,73,VALID,0.90625,
2003-10-09, 01:06:00,VALID,917.835,VALID,0,VALID,100,VALID,-0.0339617,VALID,19.8965,VALID,61,VALID,0.894985,
2003-10-09, 01:07:00,VALID,917.823,VALID,0,VALID,100,VALID,-0.0169808,VALID,19.8933,VALID,56,VALID,0.842262,
2003-10-09, 01:08:01,VALID,917.822,VALID,0,VALID,100,VALID,0,VALID,19.9,VALID,34,VALID,0.506722,
2003-10-09, 01:09:00,VALID,917.807,VALID,0,VALID,100,VALID,-0.0339617,VALID,19.9102,VALID,28,VALID,0.321243,
2003-10-09, 01:10:01,VALID,917.793,VALID,0,VALID,100,VALID,-0.0339617,VALID,19.9062,VALID,28,VALID,0.122869,
2003-10-09, 01:11:00,VALID,917.783,VALID,0,VALID,100,VALID,-0.0169808,VALID,19.9102,VALID,85,VALID,0.166061,
2003-10-09, 01:12:00,VALID,917.772,VALID,0,VALID,100,VALID,0,VALID,19.903,VALID,95,VALID,0.14974,
2003-10-09, 01:13:00,VALID,917.763,VALID,0,VALID,100,VALID,-0.0169808,VALID,19.9032,VALID,118,VALID,0.335574,
2003-10-09, 01:14:00,VALID,917.75,VALID,0,VALID,100,VALID,-0.0509425,VALID,19.9002,VALID,86,VALID,0.336115,
2003-10-09, 01:15:00,VALID,917.739,VALID,0,VALID,100,VALID,-0.0339617,VALID,19.9134,VALID,6,VALID,0.064538,
2003-10-09, 01:16:01,VALID,917.749,VALID,0,VALID,100,VALID,-0.0169808,VALID,19.9094,VALID,6,VALID,0.0286458,
2003-10-09, 01:17:01,VALID,917.753,VALID,0,VALID,100,VALID,-0.0169808,VALID,19.9159,VALID,6,VALID,0.0217014,
2003-10-09, 01:18:00,VALID,917.776,VALID,0,VALID,100,VALID,-0.0169808,VALID,19.9092,VALID,6,VALID,0.0424361,
2003-10-09, 01:19:01,VALID,917.79,VALID,0,VALID,100,VALID,0.0169808,VALID,19.8987,VALID,6,VALID,0,
2003-10-09, 01:20:00,VALID,917.807,VALID,0,VALID,100,VALID,0.0679233,VALID,19.899,VALID,6,VALID,0,
2003-10-09, 01:21:01,VALID,917.817,VALID,0,VALID,100,VALID,0.0679233,VALID,19.8861,VALID,6,VALID,0,
2003-10-09, 01:22:01,VALID,917.853,VALID,0,VALID,100,VALID,0.0509425,VALID,19.8823,VALID,6,VALID,0,
2003-10-09, 01:23:00,VALID,917.881,VALID,0,VALID,100,VALID,0.0339617,VALID,19.8828,VALID,6,VALID,0,
2003-10-09, 01:24:00,VALID,917.911,VALID,0,VALID,100,VALID,0.0679233,VALID,19.8697,VALID,6,VALID,0.0490057,
2003-10-09, 01:25:00,VALID,917.943,VALID,0,VALID,100,VALID,0.0679233,VALID,19.8702,VALID,6,VALID,0.00167411,
2003-10-09, 01:26:01,VALID,917.964,VALID,0,VALID,100,VALID,0.0679233,VALID,19.8764,VALID,6,VALID,0.0121528,
2003-10-09, 01:27:01,VALID,917.972,VALID,0,VALID,100,VALID,0.0849042,VALID,19.8724,VALID,6,VALID,0.0609375,
2003-10-09, 01:28:00,VALID,917.956,VALID,0,VALID,100,VALID,0.0849042,VALID,19.8694,VALID,6,VALID,0,
2003-10-09, 01:29:01,VALID,917.936,VALID,0,VALID,100,VALID,0.0849042,VALID,19.8724,VALID,6,VALID,0,
2003-10-09, 01:30:00,VALID,917.914,VALID,0,VALID,100,VALID,0.0679233,VALID,19.8925,VALID,6,VALID,0,
2003-10-09, 01:31:01,VALID,917.913,VALID,0,VALID,100,VALID,0.0169808,VALID,19.8955,VALID,6,VALID,0,
2003-10-09, 01:32:00,VALID,917.896,VALID,0,VALID,100,VALID,0.0509425,VALID,19.9017,VALID,6,VALID,0,
2003-10-09, 01:33:00,VALID,917.886,VALID,0,VALID,100,VALID,0.0339617,VALID,19.9119,VALID,6,VALID,0,
2003-10-09, 01:34:01,VALID,917.896,VALID,0,VALID,100,VALID,-0.0509425,VALID,19.9161,VALID,6,VALID,0,
2003-10-09, 01:35:01,VALID,917.887,VALID,0,VALID,100,VALID,-0.0169808,VALID,19.9064,VALID,6,VALID,0,
2003-10-09, 01:36:00,VALID,917.893,VALID,0,VALID,100,VALID,-0.0169808,VALID,19.9231,VALID,6,VALID,0,
2003-10-09, 01:37:00,VALID,917.902,VALID,0,VALID,100,VALID,-0.0169808,VALID,19.9226,VALID,6,VALID,0.0129573,
2003-10-09, 01:38:00,VALID,917.898,VALID,0,VALID,100,VALID,-0.0679233,VALID,19.9392,VALID,6,VALID,0.185764,
2003-10-09, 01:39:00,VALID,917.91,VALID,0,VALID,100,VALID,-0.0509425,VALID,19.9457,VALID,6,VALID,0.287729,
2003-10-09, 01:40:01,VALID,917.913,VALID,0,VALID,100,VALID,-0.0509425,VALID,19.9325,VALID,6,VALID,0.297045,
2003-10-09, 01:41:00,VALID,917.934,VALID,0,VALID,100,VALID,-0.0509425,VALID,19.933,VALID,6,VALID,0.319271,
2003-10-09, 01:42:01,VALID,917.936,VALID,0,VALID,100,VALID,-0.0169808,VALID,19.9032,VALID,6,VALID,0.229297,
2003-10-09, 01:43:00,VALID,917.953,VALID,0,VALID,100,VALID,-0.0169808,VALID,19.8677,VALID,6,VALID,0.31577,
2003-10-09, 01:44:01,VALID,917.95,VALID,0,VALID,100,VALID,-0.0169808,VALID,19.8421,VALID,6,VALID,0.311612,
2003-10-09, 01:45:01,VALID,917.956,VALID,0,VALID,100,VALID,-0.0339617,VALID,19.8128,VALID,6,VALID,0.281432,
2003-10-09, 01:46:00,VALID,917.973,VALID,0,VALID,100,VALID,-0.0169808,VALID,19.8063,VALID,6,VALID,0.256722,
2003-10-09, 01:47:00,VALID,917.969,VALID,0,VALID,100,VALID,-0.0679233,VALID,19.8041,VALID,6,VALID,0.125545,
2003-10-09, 01:48:00,VALID,917.972,VALID,0,VALID,100,VALID,0,VALID,19.8033,VALID,6,VALID,0,
2003-10-09, 01:49:01,VALID,917.962,VALID,0,VALID,100,VALID,-0.0849042,VALID,19.8197,VALID,6,VALID,0,
2003-10-09, 01:50:00,VALID,917.955,VALID,0,VALID,100,VALID,-0.0339617,VALID,19.8262,VALID,6,VALID,0,
2003-10-09, 01:51:00,VALID,917.948,VALID,0,VALID,100,VALID,-0.0509425,VALID,19.8359,VALID,6,VALID,0,
2003-10-09, 01:52:00,VALID,917.922,VALID,0,VALID,100,VALID,-0.0339617,VALID,19.8356,VALID,6,VALID,0,
2003-10-09, 01:53:00,VALID,917.901,VALID,0,VALID,100,VALID,-0.0679233,VALID,19.8617,VALID,6,VALID,0.212798,
2003-10-09, 01:54:00,VALID,917.883,VALID,0,VALID,100,VALID,-0.0509425,VALID,19.8682,VALID,6,VALID,0.28404,
2003-10-09, 01:55:01,VALID,917.864,VALID,0,VALID,100,VALID,-0.0169808,VALID,19.8749,VALID,9,VALID,0.426448,
2003-10-09, 01:56:00,VALID,917.844,VALID,0,VALID,100,VALID,-0.0339617,VALID,19.8816,VALID,13,VALID,0.395712,
2003-10-09, 01:57:01,VALID,917.826,VALID,0,VALID,100,VALID,0,VALID,19.8617,VALID,15,VALID,0.371595,
2003-10-09, 01:58:00,VALID,917.804,VALID,0,VALID,100,VALID,-0.0849042,VALID,19.8846,VALID,15,VALID,0.336338,
2003-10-09, 01:59:00,VALID,917.789,VALID,0,VALID,100,VALID,-0.0509425,VALID,19.8905,VALID,15,VALID,0.307528,
2003-10-09, 02:00:00,VALID,917.778,VALID,0,VALID,100,VALID,-0.0679233,VALID,19.8938,VALID,15,VALID,0.379687,
2003-10-09, 02:01:00,VALID,917.761,VALID,0,VALID,100,VALID,-0.0339617,VALID,19.8814,VALID,15,VALID,0.303052,
2003-10-09, 02:02:00,VALID,917.73,VALID,0,VALID,100,VALID,-0.0339617,VALID,19.8814,VALID,15,VALID,0.176136,
2003-10-09, 02:03:00,VALID,917.713,VALID,0,VALID,100,VALID,-0.0339617,VALID,19.8814,VALID,15,VALID,0.140625,
2003-10-09, 02:04:01,VALID,917.706,VALID,0,VALID,100,VALID,-0.0679233,VALID,19.8779,VALID,15,VALID,0.19184,
2003-10-09, 02:05:00,VALID,917.689,VALID,0,VALID,100,VALID,-0.0679233,VALID,19.8781,VALID,15,VALID,0.158249,
2003-10-09, 02:06:01,VALID,917.668,VALID,0,VALID,100,VALID,-0.0679233,VALID,19.8709,VALID,15,VALID,0.00285823,
2003-10-09, 02:07:01,VALID,917.644,VALID,0,VALID,100,VALID,-0.0509425,VALID,19.8746,VALID,15,VALID,0.00190549,
2003-10-09, 02:08:00,VALID,917.622,VALID,0,VALID,100,VALID,-0.0679233,VALID,19.8776,VALID,15,VALID,0,
2003-10-09, 02:09:00,VALID,917.61,VALID,0,VALID,100,VALID,-0.0339617,VALID,19.8938,VALID,15,VALID,0,
2003-10-09, 02:10:01,VALID,917.588,VALID,0,VALID,100,VALID,-0.0169808,VALID,19.8908,VALID,15,VALID,0,
2003-10-09, 02:11:00,VALID,917.578,VALID,0,VALID,100,VALID,-0.0509425,VALID,19.8945,VALID,15,VALID,0,
2003-10-09, 02:12:01,VALID,917.56,VALID,0,VALID,100,VALID,-0.0509425,VALID,19.8975,VALID,15,VALID,0.107013,
2003-10-09, 02:13:01,VALID,917.548,VALID,0,VALID,100,VALID,-0.0679233,VALID,19.9069,VALID,15,VALID,0,
2003-10-09, 02:14:01,VALID,917.522,VALID,0,VALID,100,VALID,-0.0679233,VALID,19.9293,VALID,15,VALID,0,
2003-10-09, 02:15:00,VALID,917.495,VALID,0,VALID,100,VALID,-0.0509425,VALID,19.9589,VALID,15,VALID,0,
2003-10-09, 02:16:00,VALID,917.463,VALID,0,VALID,100,VALID,-0.0509425,VALID,19.9651,VALID,15,VALID,0.234375,
2003-10-09, 02:17:00,VALID,917.429,VALID,0,VALID,100,VALID,-0.0509425,VALID,19.9584,VALID,15,VALID,0.348785,
2003-10-09, 02:18:01,VALID,917.407,VALID,0,VALID,100,VALID,-0.0849042,VALID,19.9584,VALID,14,VALID,0.388822,
2003-10-09, 02:19:00,VALID,917.363,VALID,0,VALID,100,VALID,-0.0679233,VALID,19.9621,VALID,3,VALID,0.273438,
2003-10-09, 02:20:00,VALID,917.328,VALID,0,VALID,100,VALID,-0.0679233,VALID,19.9489,VALID,3,VALID,0.268864,
2003-10-09, 02:21:00,VALID,917.324,VALID,0,VALID,100,VALID,-0.0849042,VALID,19.9522,VALID,3,VALID,0.131037,
2003-10-09, 02:22:00,VALID,917.301,VALID,0,VALID,100,VALID,-0.0679233,VALID,19.9554,VALID,3,VALID,0.336719,
2003-10-09, 02:23:00,VALID,917.313,VALID,0,VALID,100,VALID,-0.0339617,VALID,19.9417,VALID,3,VALID,0.295455,
2003-10-09, 02:24:01,VALID,917.299,VALID,0,VALID,100,VALID,-0.0679233,VALID,19.9425,VALID,3,VALID,0.323583,
2003-10-09, 02:25:00,VALID,917.301,VALID,0,VALID,100,VALID,-0.0509425,VALID,19.9465,VALID,3,VALID,0.2883,
2003-10-09, 02:26:01,VALID,917.294,VALID,0,VALID,100,VALID,-0.0679233,VALID,19.9392,VALID,3,VALID,0.353379,
2003-10-09, 02:27:00,VALID,917.29,VALID,0,VALID,100,VALID,-0.0169808,VALID,19.9296,VALID,3,VALID,0.264509,
2003-10-09, 02:28:00,VALID,917.273,VALID,0,VALID,100,VALID,-0.0679233,VALID,19.9231,VALID,3,VALID,0.0345982,
2003-10-09, 02:29:01,VALID,917.266,VALID,0,VALID,100,VALID,-0.0339617,VALID,19.9233,VALID,3,VALID,0,
2003-10-09, 02:30:00,VALID,917.25,VALID,0,VALID,100,VALID,-0.0679233,VALID,19.9104,VALID,3,VALID,0,
2003-10-09, 02:31:01,VALID,917.234,VALID,0,VALID,100,VALID,-0.0679233,VALID,19.8943,VALID,3,VALID,0,
2003-10-09, 02:32:01,VALID,917.219,VALID,0,VALID,100,VALID,-0.0339617,VALID,19.894,VALID,3,VALID,0.00558036,
2003-10-09, 02:33:01,VALID,917.201,VALID,0,VALID,100,VALID,-0.0679233,VALID,19.8968,VALID,35,VALID,0.154204,
2003-10-09, 02:34:00,VALID,917.185,VALID,0,VALID,100,VALID,0.0509425,VALID,19.8895,VALID,118,VALID,0.352108,
2003-10-09, 02:35:01,VALID,917.178,VALID,0,VALID,100,VALID,0.0509425,VALID,19.8863,VALID,122,VALID,0.324855,
2003-10-09, 02:36:01,VALID,917.172,VALID,0,VALID,100,VALID,0.0509425,VALID,19.8734,VALID,130,VALID,0.292535,
2003-10-09, 02:37:01,VALID,917.159,VALID,0,VALID,100,VALID,0.0509425,VALID,19.8635,VALID,130,VALID,0.299293,
2003-10-09, 02:38:01,VALID,917.142,VALID,0,VALID,100,VALID,0.0509425,VALID,19.8533,VALID,130,VALID,0.0516387,
2003-10-09, 02:39:01,VALID,917.14,VALID,0,VALID,100,VALID,0.0169808,VALID,19.8538,VALID,130,VALID,0.421697,
2003-10-09, 02:40:01,VALID,917.141,VALID,0,VALID,100,VALID,0.0339617,VALID,19.8612,VALID,130,VALID,0.123476,
2003-10-09, 02:41:01,VALID,917.126,VALID,0,VALID,100,VALID,0.0509425,VALID,19.8476,VALID,133,VALID,0.292492,
2003-10-09, 02:42:01,VALID,917.119,VALID,0,VALID,100,VALID,0.0339617,VALID,19.8413,VALID,134,VALID,0.261914,
2003-10-09, 02:43:01,VALID,917.135,VALID,0,VALID,100,VALID,0.0169808,VALID,19.8252,VALID,136,VALID,0.238467,
2003-10-09, 02:44:00,VALID,917.13,VALID,0,VALID,100,VALID,0,VALID,19.8217,VALID,141,VALID,0.3125,
2003-10-09, 02:45:01,VALID,917.142,VALID,0,VALID,100,VALID,0.0509425,VALID,19.8056,VALID,143,VALID,0.221912,
2003-10-09, 02:46:00,VALID,917.14,VALID,0,VALID,100,VALID,0.0339617,VALID,19.8158,VALID,158,VALID,0.340298,
2003-10-09, 02:47:01,VALID,917.152,VALID,0,VALID,100,VALID,0.0339617,VALID,19.8021,VALID,186,VALID,0.206101,
2003-10-09, 02:48:01,VALID,917.163,VALID,0,VALID,100,VALID,0,VALID,19.819,VALID,215,VALID,0.189918,
2003-10-09, 02:49:01,VALID,917.165,VALID,0,VALID,100,VALID,-0.0679233,VALID,19.8232,VALID,215,VALID,0.181362,
2003-10-09, 02:50:01,VALID,917.181,VALID,0,VALID,100,VALID,-0.0849042,VALID,19.8133,VALID,208,VALID,0.306868,
2003-10-09, 02:51:01,VALID,917.163,VALID,0,VALID,100,VALID,-0.0509425,VALID,19.8165,VALID,190,VALID,0.155273,
2003-10-09, 02:52:01,VALID,917.158,VALID,0,VALID,100,VALID,-0.0679233,VALID,19.8168,VALID,174,VALID,0.347747,
2003-10-09, 02:53:01,VALID,917.154,VALID,0,VALID,100,VALID,-0.0339617,VALID,19.8138,VALID,171,VALID,0.429861,
2003-10-09, 02:54:01,VALID,917.139,VALID,0,VALID,100,VALID,-0.0849042,VALID,19.8076,VALID,171,VALID,0.102257,
2003-10-09, 02:55:01,VALID,917.135,VALID,0,VALID,100,VALID,-0.0509425,VALID,19.7939,VALID,171,VALID,0,
2003-10-09, 02:56:01,VALID,917.128,VALID,0,VALID,100,VALID,-0.0679233,VALID,19.7974,VALID,171,VALID,0.0403646,
2003-10-09, 02:57:01,VALID,917.109,VALID,0,VALID,100,VALID,-0.0509425,VALID,19.8006,VALID,171,VALID,0.0250727,
2003-10-09, 02:58:01,VALID,917.099,VALID,0,VALID,100,VALID,-0.0679233,VALID,19.8143,VALID,171,VALID,0.0426136,
2003-10-09, 02:59:01,VALID,917.06,VALID,0,VALID,100,VALID,-0.0339617,VALID,19.8041,VALID,171,VALID,0,
2003-10-09, 03:00:01,VALID,917.044,VALID,0,VALID,100,VALID,-0.0339617,VALID,19.81,VALID,171,VALID,0.0167151,
2003-10-09, 03:01:01,VALID,917.048,VALID,0,VALID,100,VALID,-0.0509425,VALID,19.8133,VALID,187,VALID,0.230808,
2003-10-09, 03:02:01,VALID,917.02,VALID,0,VALID,100,VALID,-0.0849042,VALID,19.7936,VALID,226,VALID,0.50186,
2003-10-09, 03:03:01,VALID,917.031,VALID,0,VALID,100,VALID,-0.0339617,VALID,19.7976,VALID,225,VALID,0.477471,
2003-10-09, 03:04:01,VALID,917.009,VALID,0,VALID,100,VALID,-0.0509425,VALID,19.7907,VALID,209,VALID,0.334794,
2003-10-09, 03:05:01,VALID,917.018,VALID,0,VALID,100,VALID,-0.0509425,VALID,19.7872,VALID,209,VALID,0.0366443,
2003-10-09, 03:06:01,VALID,917.007,VALID,0,VALID,100,VALID,-0.0679233,VALID,19.8036,VALID,209,VALID,0.00495427,
2003-10-09, 03:07:01,VALID,917.013,VALID,0,VALID,100,VALID,-0.0849042,VALID,19.8138,VALID,209,VALID,0,
2003-10-09, 03:08:01,VALID,917.014,VALID,0,VALID,100,VALID,-0.0509425,VALID,19.8133,VALID,209,VALID,0.0258557,
2003-10-09, 03:09:01,VALID,917.013,VALID,0,VALID,100,VALID,-0.0679233,VALID,19.8232,VALID,195,VALID,0.269985,
2003-10-09, 03:10:01,VALID,917.006,VALID,0,VALID,100,VALID,-0.0509425,VALID,19.823,VALID,187,VALID,0.0625,
2003-10-09, 03:11:01,VALID,916.986,VALID,0,VALID,100,VALID,-0.0849042,VALID,19.8297,VALID,187,VALID,0.000390625,
2003-10-09, 03:12:00,VALID,916.951,VALID,0,VALID,100,VALID,-0.0509425,VALID,19.8359,VALID,187,VALID,0.00852273,
2003-10-09, 03:13:00,VALID,916.927,VALID,0,VALID,100,VALID,-0.0679233,VALID,19.8297,VALID,187,VALID,0.111662,
2003-10-09, 03:14:00,VALID,916.912,VALID,0,VALID,100,VALID,-0.0509425,VALID,19.8366,VALID,186,VALID,0.0807927,
2003-10-09, 03:15:00,VALID,916.882,VALID,0,VALID,100,VALID,-0.0509425,VALID,19.8426,VALID,186,VALID,0,
2003-10-09, 03:16:00,VALID,916.874,VALID,0,VALID,100,VALID,-0.0679233,VALID,19.8488,VALID,186,VALID,0,
2003-10-09, 03:17:00,VALID,916.851,VALID,0,VALID,100,VALID,-0.0509425,VALID,19.8617,VALID,186,VALID,0.0249256,
2003-10-09, 03:18:00,VALID,916.847,VALID,0,VALID,100,VALID,-0.0679233,VALID,19.8652,VALID,186,VALID,0.0125363,
2003-10-09, 03:19:00,VALID,916.829,VALID,0,VALID,100,VALID,-0.0679233,VALID,19.8655,VALID,186,VALID,0.00985863,
2003-10-09, 03:20:00,VALID,916.846,VALID,0,VALID,100,VALID,-0.0679233,VALID,19.8587,VALID,186,VALID,0,
2003-10-09, 03:21:00,VALID,916.864,VALID,0,VALID,100,VALID,-0.101885,VALID,19.8754,VALID,186,VALID,0.103468,
2003-10-09, 03:22:00,VALID,916.864,VALID,0,VALID,100,VALID,-0.101885,VALID,19.8684,VALID,186,VALID,0.146257,
2003-10-09, 03:23:00,VALID,916.876,VALID,0,VALID,100,VALID,-0.101885,VALID,19.8687,VALID,184,VALID,0.0962936,
2003-10-09, 03:24:00,VALID,916.885,VALID,0,VALID,100,VALID,-0.101885,VALID,19.8682,VALID,166,VALID,0.133878,
2003-10-09, 03:25:00,VALID,916.891,VALID,0,VALID,100,VALID,-0.0679233,VALID,19.8746,VALID,118,VALID,0.307231,
2003-10-09, 03:26:00,VALID,916.89,VALID,0,VALID,100,VALID,-0.0849042,VALID,19.8717,VALID,115,VALID,0.393945,
2003-10-09, 03:27:00,VALID,916.885,VALID,0,VALID,100,VALID,-0.0849042,VALID,19.8523,VALID,125,VALID,0.189499,
2003-10-09, 03:28:00,VALID,916.874,VALID,0,VALID,100,VALID,-0.0849042,VALID,19.852,VALID,125,VALID,0.175174,
2003-10-09, 03:29:00,VALID,916.874,VALID,0,VALID,100,VALID,-0.0339617,VALID,19.8523,VALID,42,VALID,0.454215,
2003-10-09, 03:30:00,VALID,916.852,VALID,0,VALID,100,VALID,-0.0679233,VALID,19.8684,VALID,24,VALID,0.823153,
2003-10-09, 03:31:00,VALID,916.852,VALID,0,VALID,100,VALID,-0.0679233,VALID,19.8558,VALID,23,VALID,0.823633,
2003-10-09, 03:32:00,VALID,916.844,VALID,0,VALID,100,VALID,-0.0509425,VALID,19.8418,VALID,23,VALID,0.654018,
2003-10-09, 03:33:00,VALID,916.841,VALID,0,VALID,100,VALID,-0.0169808,VALID,19.8359,VALID,23,VALID,0.351385,
2003-10-09, 03:34:00,VALID,916.838,VALID,0,VALID,100,VALID,-0.0509425,VALID,19.8359,VALID,22,VALID,0.451672,
2003-10-09, 03:35:00,VALID,916.842,VALID,0,VALID,100,VALID,-0.0509425,VALID,19.8483,VALID,21,VALID,0.490141,
2003-10-09, 03:36:00,VALID,916.842,VALID,0,VALID,100,VALID,-0.0679233,VALID,19.8582,VALID,21,VALID,0.414993,
2003-10-09, 03:37:00,VALID,916.839,VALID,0,VALID,100,VALID,-0.0849042,VALID,19.8652,VALID,20,VALID,0.532774,
2003-10-09, 03:38:00,VALID,916.831,VALID,0,VALID,100,VALID,-0.0679233,VALID,19.8679,VALID,20,VALID,0.362201,
2003-10-09, 03:39:00,VALID,916.844,VALID,0,VALID,100,VALID,-0.0849042,VALID,19.8513,VALID,20,VALID,0.329942,